Regional Weather Roundup
Issued by NWS

Home | Current Version | Previous Version | Text Only | Print | Product List | Glossary On
Versions: 1 2 3 4 5 6 7 8 9 10 11 12 13 14 15 16 17 18 19 20 21 22 23 24 25 26 27 28 29 30 31 32 33 34 35 36 37 38 39 40 41 42 43 44 45 46 47 48 49 50
000
ASUS44 KOUN 112210
RWROK

WEATHER ROUNDUP FOR OKLAHOMA
NATIONAL WEATHER SERVICE NORMAN OK
500 PM CDT FRI JUL 11 2014

NOTE: "FAIR" INDICATES FEW OR NO CLOUDS BELOW 12,000 FEET WITH NO
      SIGNIFICANT WEATHER AND/OR OBSTRUCTIONS TO VISIBILITY.

OKZ001>007-009>012-014-015-017-112300-
NORTHWEST OKLAHOMA AND THE PANHANDLE

CITY           SKY/WX    TMP DP  RH WIND       PRES   REMARKS
GAGE           SUNNY     95  55  26 S18G29    30.02F HX  93
ENID/VANCE AFB SUNNY     93  64  38 S20G26    30.03F HX  95
ENID/WOODRING  MOSUNNY   93  63  36 S18       30.01F HX  94
$$

OKZ016-021>023-033>039-044-045-112300-
SOUTHWEST OKLAHOMA

CITY           SKY/WX    TMP DP  RH WIND       PRES   REMARKS
LAWTON/REGL    MOSUNNY   97  58  27 S16G25    30.02F HX  96
LAWTON/FT SILL MOSUNNY   94  61  33 S16G22    30.02F HX  94
FREDERICK      MOSUNNY   97  59  28 S16G25    29.99F HX  96
CLINTON        SUNNY     95  57  27 S22G28    30.06F HX  94
HOBART         MOSUNNY   95  60  31 S18G25    30.04F HX  95
ALTUS AFB      MOSUNNY   94  61  33 SE16G25   30.02F HX  94
$$

OKZ018>020-024>031-112300-
CENTRAL OKLAHOMA

CITY           SKY/WX    TMP DP  RH WIND       PRES   REMARKS
OKLAHOMA CITY  MOSUNNY   92  64  39 S13G22    30.05F HX  93
OKC/WILEY POST SUNNY     92  65  40 S17G25    30.05F HX  94
OKC/TINKER AFB SUNNY     91  65  41 S16       30.06F HX  93
STILLWATER     SUNNY     93  66  40 S16G22    30.03F HX  96
GUTHRIE        SUNNY     96  63  33 S16       30.04F HX  97
$$

OKZ008-013-054>072-112300-
NORTHEAST OKLAHOMA

CITY           SKY/WX    TMP DP  RH WIND       PRES   REMARKS
TULSA          MOSUNNY   93  67  42 S14       30.03F HX  96
TULSA/JONES    SUNNY     94  68  42 SW10      30.04F HX  98
PONCA CITY     SUNNY     94  65  38 S10G17    30.02F HX  96
BARTLESVILLE   SUNNY     91  73  55 SW8       30.05F HX  99
MUSKOGEE       SUNNY     91  70  49 S10       30.08F HX  96
$$

OKZ032-040>043-046>053-073>077-112300-
SOUTH CENTRAL/SOUTHEAST OKLAHOMA

CITY           SKY/WX    TMP DP  RH WIND       PRES   REMARKS
ARDMORE/DWNTWN SUNNY     95  52  23 S14G20    30.05F HX  92
MCALESTER      SUNNY     93  67  42 SW12      30.07F HX  96
$$




USA.gov is the U.S. government's official web portal to all federal, state and local government web resources and services.